STARLINK-38079, 100165

Orbit data source: Space-Track

STARLINK-38079, 100165 is a payload satellite owned by SpaceX/Seattle (US) in SSO that was launched on Sat, 25 Jul 2026 UTC launched from the Air Force Western Test Range (AFWTR). Payload-class satellites include a variety of spacecraft equipped with specific instruments for various scientific and technological missions. These include communications satellites like Starlink; space stations such as the ISS; scientific satellites like the Hubble; Earth observation satellites from companies like Planet Labs, Umbra, and HawkEye 360; GPS; miniature CubeSats for education and research; and military/defense satellites.

Loading next visibility...
Identifier
100165, 2026-171T
Orbit
SSO
Country
Flag of USUS
Related business
Manufacturer
SpaceX/Seattle
Mission
Operational spacecraft
Bus & Motor
STARLINK V2MO, Unknown motor
Mass
575 kg wet, ~530 kg dry
Launch date (UTC)
2026-07-25 (3 weeks ago)
Launch vehicle
Unknown
Launch site
Air Force Western Test Range (AFWTR)
Object type
Payload
Rocket body
Debris
Shape & HBR
BOX + PAN, 17.7 m
Radar Cross Section
RCS unknown

Expand to show TLE details & history
Last TLE update: 9 hours ago

TLE from 9 hours ago
0 STARLINK-38079
1 A0165U 26171T   26227.56811952  .00183062  00000-0  93317-3 0  9991
2 A0165  97.2829 259.5239 0001656  57.2950 302.8478 15.80894656  3324
Epoch: 2026-08-15T13:38Z
TLE epoch observation values (Epoch: 2026-08-15T13:38:05.526Z)
Latitude
-0.00001°
Longitude
91.02375°
Altitude
330.483 km
Speed
7.71 km/s
True Right ascension
17h 18m 05s
True Declination
0° 00' 00"
Sunlit
Object was in full shadow at epoch
Visualization orbit readout
Latitude
Unknown
Longitude
Unknown
Altitude
Unknown
Speed
Unknown
Apparent Right ascension
Unknown
Apparent Declination
Unknown
Sunlit
N/A
Visualization observer readout
Local Sidereal Time
13:15:20
Azimuth
Unknown
Elevation
Unknown
Doppler factor
Unknown
Orbital elements
Apogee altitude
325.899 km
Perigee altitude
323.679 km
Semi-major axis
6,702.926 km
Eccentricity
0.00017
Inclination
97.2829°
RAAN
259.5239°
Arg. of periapsis
57.295°
True anomaly
302.83186°
Mean anomaly
302.8478°
Eccentric anomaly
302.83983°
Mean motion
3.955 °/min
Orbital period
91.02 mins
BSTAR
0.00093317
Loading maneuver chart data...
Computing Atmospheric mass density...
Loading historical data...
Loading historical data...
Loading historical data...
Loading historical data...
Loading historical data...
Loading historical data...
Loading historical data...

Documentation

Showing up to 5 results
|